Location: Asheville, NC
(35.6000°N, 82.5500°W)
Time: 10:39:58
(UTC-04:00)

Vanguard 2 - Pass Details

Date: 14 March 2018
Orbit: 553 x 2939 km, 32.9° (Epoch: 18 June)

Event Time Altitude Azimuth Distance (km) Brightness Sun altitude
Rises 08:02:12 0° 172° (S) 4,713 11.7 3.2°
Reaches altitude 10° 08:09:11 10° 139° (SE) 4,407 12.2 4.6°
Maximum altitude 08:11:50 11° 126° (SE) 4,560 12.7 5.1°
Drops below altitude 10° 08:14:41 10° 114° (ESE) 4,860 13.4 5.7°
Sets 08:24:19 0° 85° (E) 6,465 14.2 7.7°
